• en Belgique
  • Liste des pays
  • À 7 jours
  • Température de l'eau
  • Carte satellitaire
  • Carte météo
  • Widgets météo
  • user-avatar
    Se connecter

    Météo par heure à Abovyan

    Ce jour, 19 Octobre, Vendredi

    Heure Température Précipitation Vent Pression Humidité
    00:00 +13°C° 0 mm 1 m/s 673 mmHg 64%
    01:00 +12°C° 0 mm 1 m/s 673 mmHg 67%
    02:00 +12°C° 0 mm 1 m/s 673 mmHg 69%
    03:00 +12°C° 0 mm 1 m/s 673 mmHg 71%
    04:00 +12°C° 0 mm 1 m/s 673 mmHg 72%
    05:00 +11°C° 0 mm 1 m/s 673 mmHg 73%
    06:00 +11°C° 0 mm 1 m/s 673 mmHg 74%
    07:00 +13°C° 0 mm 1 m/s 674 mmHg 63%
    08:00 +15°C° 0 mm 1 m/s 674 mmHg 53%
    09:00 +18°C° 0 mm 1 m/s 675 mmHg 42%
    10:00 +20°C° 0 mm 1 m/s 675 mmHg 38%
    11:00 +21°C° 0 mm 1 m/s 675 mmHg 33%
    12:00 +21°C° 0 mm 2 m/s 675 mmHg 29%
    13:00 +21°C° 0 mm 2 m/s 674 mmHg 28%
    14:00 +21°C° 0 mm 2 m/s 674 mmHg 27%
    15:00 +23°C° 0 mm 2 m/s 674 mmHg 27%
    16:00 +21°C° 0 mm 1 m/s 673 mmHg 32%
    17:00 +19°C° 0 mm 1 m/s 673 mmHg 37%
    18:00 +16°C° 0 mm 1 m/s 673 mmHg 42%
    19:00 +15°C° 0 mm 1 m/s 673 mmHg 44%
    20:00 +15°C° 0 mm 1 m/s 673 mmHg 46%
    21:00 +14°C° 0 mm 1 m/s 673 mmHg 48%
    22:00 +14°C° 0 mm 1 m/s 673 mmHg 48%
    23:00 +14°C° 0 mm 1 m/s 673 mmHg 49%

    Demain, 20 Octobre, Samedi

    Heure Température Précipitation Vent Pression Humidité
    00:00 +13°C° 0 mm 1 m/s 673 mmHg 49%
    01:00 +13°C° 0.1 mm 1 m/s 673 mmHg 49%
    02:00 +13°C° 0.1 mm 1 m/s 673 mmHg 48%
    03:00 +13°C° 0.1 mm 1 m/s 673 mmHg 48%
    04:00 +12°C° 0.1 mm 1 m/s 673 mmHg 48%
    05:00 +12°C° 0.1 mm 1 m/s 672 mmHg 48%
    06:00 +12°C° 0.1 mm 1 m/s 672 mmHg 49%
    07:00 +14°C° 0 mm 1 m/s 673 mmHg 47%
    08:00 +16°C° 0 mm 1 m/s 673 mmHg 45%
    09:00 +18°C° 0 mm 2 m/s 674 mmHg 44%
    10:00 +19°C° 0 mm 2 m/s 674 mmHg 41%
    11:00 +20°C° 0 mm 2 m/s 673 mmHg 39%
    12:00 +21°C° 0 mm 2 m/s 673 mmHg 37%
    13:00 +21°C° 0.1 mm 2 m/s 673 mmHg 37%
    14:00 +21°C° 0.1 mm 2 m/s 673 mmHg 37%
    15:00 +23°C° 0.1 mm 2 m/s 672 mmHg 36%
    16:00 +20°C° 0.2 mm 2 m/s 672 mmHg 41%
    17:00 +18°C° 0.2 mm 2 m/s 672 mmHg 46%
    18:00 +18°C° 0.2 mm 1 m/s 671 mmHg 50%
    19:00 +16°C° 0.2 mm 1 m/s 671 mmHg 51%
    20:00 +16°C° 0.2 mm 1 m/s 672 mmHg 51%
    21:00 +15°C° 0.2 mm 1 m/s 672 mmHg 52%
    22:00 +15°C° 0.2 mm 1 m/s 671 mmHg 53%
    23:00 +14°C° 0.2 mm 1 m/s 671 mmHg 54%

    Après-demain, 21 Octobre, Dimanche

    Heure Température Précipitation Vent Pression Humidité
    00:00 +14°C° 0.2 mm 1 m/s 671 mmHg 55%
    01:00 +14°C° 0.1 mm 1 m/s 671 mmHg 55%
    02:00 +14°C° 0.1 mm 1 m/s 671 mmHg 56%
    03:00 +13°C° 0.1 mm 1 m/s 671 mmHg 57%
    04:00 +13°C° 0.1 mm 1 m/s 671 mmHg 58%
    05:00 +13°C° 0.1 mm 1 m/s 670 mmHg 59%
    06:00 +13°C° 0.1 mm 1 m/s 670 mmHg 59%
    07:00 +15°C° 0.1 mm 1 m/s 671 mmHg 55%
    08:00 +16°C° 0.1 mm 2 m/s 671 mmHg 51%
    09:00 +18°C° 0.1 mm 2 m/s 672 mmHg 47%
    10:00 +19°C° 0.1 mm 2 m/s 671 mmHg 45%
    11:00 +20°C° 0.1 mm 2 m/s 671 mmHg 43%
    12:00 +21°C° 0.1 mm 3 m/s 671 mmHg 40%
    13:00 +20°C° 0.2 mm 3 m/s 671 mmHg 41%
    14:00 +20°C° 0.2 mm 3 m/s 671 mmHg 41%
    15:00 +20°C° 0.2 mm 2 m/s 670 mmHg 42%
    16:00 +19°C° 0.2 mm 2 m/s 670 mmHg 45%
    17:00 +18°C° 0.2 mm 2 m/s 670 mmHg 49%
    18:00 +16°C° 0.2 mm 2 m/s 670 mmHg 53%
    19:00 +16°C° 0.1 mm 2 m/s 670 mmHg 54%
    20:00 +15°C° 0.1 mm 1 m/s 670 mmHg 55%
    21:00 +15°C° 0.1 mm 1 m/s 670 mmHg 56%
    22:00 +15°C° 0 mm 1 m/s 670 mmHg 57%
    23:00 +14°C° 0 mm 1 m/s 670 mmHg 59%

    22 Octobre, Lundi

    Heure Température Précipitation Vent Pression Humidité
    00:00 +14°C° 0 mm 1 m/s 670 mmHg 60%
    01:00 +14°C° 0.1 mm 1 m/s 670 mmHg 62%
    02:00 +14°C° 0.1 mm 1 m/s 670 mmHg 65%
    03:00 +13°C° 0.1 mm 1 m/s 670 mmHg 67%
    04:00 +13°C° 0.2 mm 1 m/s 670 mmHg 69%
    05:00 +13°C° 0.2 mm 1 m/s 670 mmHg 71%
    06:00 +13°C° 0.2 mm 1 m/s 670 mmHg 73%
    07:00 +14°C° 0.1 mm 2 m/s 670 mmHg 68%
    08:00 +15°C° 0.1 mm 2 m/s 671 mmHg 64%
    09:00 +17°C° 0.1 mm 2 m/s 671 mmHg 59%
    10:00 +18°C° 0 mm 3 m/s 671 mmHg 56%
    11:00 +19°C° 0 mm 3 m/s 671 mmHg 52%
    12:00 +20°C° 0 mm 3 m/s 671 mmHg 49%
    13:00 +20°C° 0 mm 3 m/s 671 mmHg 47%
    14:00 +20°C° 0 mm 3 m/s 671 mmHg 46%
    15:00 +20°C° 0 mm 3 m/s 670 mmHg 44%
    16:00 +19°C° 0 mm 3 m/s 670 mmHg 49%
    17:00 +17°C° 0 mm 2 m/s 670 mmHg 55%
    18:00 +16°C° 0 mm 2 m/s 670 mmHg 60%
    19:00 +15°C° 0 mm 2 m/s 670 mmHg 61%
    20:00 +15°C° 0 mm 2 m/s 671 mmHg 62%
    21:00 +15°C° 0 mm 2 m/s 671 mmHg 63%
    22:00 +14°C° 0 mm 2 m/s 671 mmHg 63%
    23:00 +14°C° 0 mm 2 m/s 671 mmHg 63%

    23 Octobre, Mardi

    Heure Température Précipitation Vent Pression Humidité
    00:00 +14°C° 0 mm 2 m/s 671 mmHg 63%
    01:00 +13°C° 0 mm 2 m/s 671 mmHg 64%
    02:00 +13°C° 0 mm 2 m/s 671 mmHg 65%
    03:00 +13°C° 0 mm 2 m/s 671 mmHg 66%
    04:00 +12°C° 0 mm 2 m/s 671 mmHg 67%
    05:00 +12°C° 0 mm 2 m/s 671 mmHg 67%
    06:00 +12°C° 0 mm 2 m/s 671 mmHg 67%
    07:00 +14°C° 0 mm 2 m/s 672 mmHg 62%
    08:00 +14°C° 0 mm 3 m/s 672 mmHg 56%
    09:00 +17°C° 0 mm 3 m/s 673 mmHg 51%
    10:00 +18°C° 0 mm 3 m/s 672 mmHg 48%
    11:00 +19°C° 0 mm 3 m/s 672 mmHg 45%
    12:00 +20°C° 0 mm 4 m/s 672 mmHg 42%
    13:00 +20°C° 0.4 mm 3 m/s 672 mmHg 45%
    14:00 +19°C° 0.4 mm 3 m/s 672 mmHg 47%
    15:00 +19°C° 0.4 mm 3 m/s 672 mmHg 50%
    16:00 +18°C° 0.2 mm 3 m/s 672 mmHg 54%
    17:00 +17°C° 0.2 mm 2 m/s 672 mmHg 58%
    18:00 +15°C° 0.2 mm 2 m/s 672 mmHg 62%
    19:00 +15°C° 0.2 mm 2 m/s 672 mmHg 65%
    20:00 +14°C° 0.2 mm 2 m/s 672 mmHg 69%
    21:00 +14°C° 0.2 mm 2 m/s 672 mmHg 73%
    22:00 +14°C° 0.1 mm 2 m/s 671 mmHg 74%
    23:00 +13°C° 0.1 mm 2 m/s 671 mmHg 75%

    24 Octobre, Mercredi

    Heure Température Précipitation Vent Pression Humidité
    00:00 +13°C° 0.1 mm 2 m/s 671 mmHg 75%
    01:00 +13°C° 0.1 mm 2 m/s 671 mmHg 76%
    02:00 +13°C° 0.1 mm 2 m/s 671 mmHg 77%
    03:00 +13°C° 0.1 mm 2 m/s 670 mmHg 78%
    04:00 +13°C° 0 mm 2 m/s 670 mmHg 78%
    05:00 +12°C° 0 mm 2 m/s 670 mmHg 78%
    06:00 +12°C° 0 mm 2 m/s 670 mmHg 78%
    07:00 +13°C° 0 mm 3 m/s 671 mmHg 72%
    08:00 +14°C° 0 mm 3 m/s 671 mmHg 65%
    09:00 +17°C° 0 mm 3 m/s 671 mmHg 58%
    10:00 +18°C° 0 mm 4 m/s 671 mmHg 55%
    11:00 +19°C° 0 mm 4 m/s 670 mmHg 52%
    12:00 +20°C° 0 mm 4 m/s 670 mmHg 48%
    13:00 +20°C° 0 mm 4 m/s 670 mmHg 48%
    14:00 +20°C° 0 mm 4 m/s 669 mmHg 47%
    15:00 +21°C° 0 mm 4 m/s 669 mmHg 46%
    16:00 +19°C° 0 mm 4 m/s 668 mmHg 51%
    17:00 +17°C° 0 mm 3 m/s 668 mmHg 56%
    18:00 +16°C° 0 mm 2 m/s 668 mmHg 61%
    19:00 +16°C° 0 mm 2 m/s 668 mmHg 61%
    20:00 +16°C° 0 mm 2 m/s 668 mmHg 61%
    21:00 +15°C° 0 mm 2 m/s 668 mmHg 61%
    22:00 +15°C° 0 mm 2 m/s 667 mmHg 63%
    23:00 +15°C° 0 mm 2 m/s 667 mmHg 64%
    Voir plus